Theta_e
305 305 305 306 306 306 307 307 307 306 307 307 308 308 305 307 310 309 309 311 313 313 311 310 310 310 312 313 315 315 322 324 324 322 323 321 324 321 321 326 330 330 333 332 329
304 304 305 306 305 305 305 306 307 306 307 307 308 307 304 308 310 312 307 311 310 311 312 311 310 311 311 314 313 316 318 322 320 319 320 321 322 322 324 330 333 335 332 325 327
304 304 304 303 301 303 304 305 306 306 303 305 308 305 305 309 310 311 308 310 310 308 312 312 312 312 314 314 313 313 318 318 318 319 320 319 320 323 322 327 328 333 331 322 327
305 304 301 300 301 301 302 305 306 306 306 307 307 310 307 309 310 308 308 309 309 308 311 311 311 312 313 315 314 315 311 314 318 318 320 320 320 322 321 322 323 324 328 323 328
304 305 301 299 298 299 302 303 302 303 302 304 308 311 309 306 309 309 309 309 309 310 311 311 310 312 312 312 313 315 314 314 315 317 322 321 320 323 321 318 325 330 328 324 327
304 304 301 298 298 299 299 298 302 300 302 304 309 311 309 310 310 310 309 309 309 310 311 310 309 311 311 314 314 313 314 315 315 319 322 324 321 323 322 324 332 332 331 325 324
302 301 300 299 299 299 297 298 299 301 302 306 310 310 309 308 310 310 309 309 309 309 310 310 310 311 312 315 312 313 315 314 314 318 321 322 325 324 316 329 334 334 332 328 323
303 302 300 300 299 298 297 298 300 302 305 307 310 311 309 310 308 309 310 310 309 310 310 310 310 312 311 312 312 313 315 315 312 318 319 317 324 321 320 318 334 335 331 330 328
304 302 299 299 298 298 298 299 303 305 306 307 310 309 308 308 309 310 310 310 309 309 311 311 313 314 313 315 314 312 318 315 314 320 321 318 323 322 317 312 325 333 331 330 329
304 302 300 299 298 298 299 301 305 304 307 308 308 305 306 306 307 309 310 309 309 308 311 313 312 311 311 315 315 313 315 317 315 320 319 321 321 322 319 313 322 330 331 330 329
302 301 299 299 299 300 299 301 298 300 303 305 305 306 306 307 309 310 309 309 309 311 310 312 315 316 315 316 314 316 319 318 315 320 319 318 319 323 320 316 308 312 323 329 329
302 301 299 299 298 300 302 301 302 301 302 303 304 304 306 308 309 308 309 310 310 309 306 307 314 314 314 314 314 312 315 317 319 322 323 326 326 322 320 316 306 307 309 313 319
302 300 299 299 298 301 300 302 303 304 304 304 305 307 307 308 309 309 309 309 310 308 308 312 311 313 314 317 318 312 314 315 322 321 318 323 320 317 316 316 312 308 306 308 313
301 299 299 299 301 301 298 298 302 304 297 303 305 306 306 307 309 308 309 310 308 310 308 306 310 312 313 316 316 319 315 314 318 322 326 315 323 314 314 314 314 311 306 307 308
300 299 299 300 298 300 298 298 302 300 298 300 304 305 303 307 307 308 308 309 310 311 307 307 309 309 314 315 313 317 313 316 316 318 320 318 320 317 313 314 313 313 307 306 307
300 299 299 300 300 300 298 301 302 297 298 305 304 304 306 305 307 306 306 306 308 309 306 307 305 308 309 312 311 313 314 314 315 316 317 319 319 317 318 315 312 309 309 307 307
300 300 299 300 299 300 299 298 295 298 298 301 304 304 305 306 307 307 308 308 310 305 308 307 306 306 307 310 310 312 313 313 314 311 320 316 316 317 312 310 309 307 308 307 305
300 300 300 299 299 298 300 294 291 291 297 302 303 305 306 305 305 306 307 306 306 309 308 310 306 306 307 309 311 311 312 315 315 316 318 310 315 314 310 310 310 308 307 307 306
301 300 300 300 299 298 294 289 292 293 300 303 304 304 298 304 307 305 305 306 307 309 311 311 309 307 307 308 308 310 312 311 312 306 312 309 308 308 311 308 305 306 307 308 307
300 299 299 300 298 298 293 295 292 297 301 303 305 303 301 299 308 305 301 303 306 308 308 311 310 308 308 306 306 308 308 310 307 309 312 313 307 309 307 306 305 304 303 302 302
299 295 299 299 299 293 292 290 298 299 301 303 301 304 304 305 301 306 304 303 304 306 308 308 309 307 306 308 310 308 308 308 308 309 311 313 309 303 306 305 303 303 303 302 301
296 291 300 299 294 288 289 289 297 299 300 302 301 303 303 304 305 303 305 305 306 308 309 308 307 303 310 306 305 308 310 307 305 308 308 309 309 305 305 304 302 302 302 299 298
291 294 299 297 293 290 290 290 295 299 300 301 302 302 302 304 304 304 304 304 304 307 308 308 300 295 300 302 304 308 309 308 306 306 309 306 308 304 302 302 301 302 300 298 297
292 296 297 299 292 290 289 289 294 296 299 300 301 302 302 303 302 304 305 303 303 304 307 306 304 300 301 303 304 307 309 308 307 304 308 307 305 305 303 301 300 300 298 297 297
292 292 295 298 298 293 294 294 296 295 296 298 301 302 302 302 302 304 301 303 303 305 302 302 300 300 301 300 301 304 307 307 309 307 305 308 305 303 306 301 300 300 298 297 297
294 294 294 292 296 296 296 294 297 298 297 298 301 302 301 301 302 303 300 301 302 301 301 297 297 295 294 297 296 298 300 303 305 308 308 308 309 306 301 297 298 298 297 296 296
296 295 295 295 296 294 293 295 297 297 296 298 299 300 301 299 298 297 297 297 299 301 301 298 290 287 291 292 290 291 293 299 301 303 305 308 306 301 297 298 299 297 296 297 296
Wind_Speed
8 9 10 11 12 13 13 14 15 16 17 17 17 17 16 15 14 6 4 7 9 15 17 15 11 16 4 1 2 2 4 18 23 7 6 2 5 3 2 6 2 4 3 4 29
8 9 11 12 13 14 14 15 16 17 17 17 17 16 13 13 9 3 3 7 9 13 11 11 7 11 4 2 2 4 6 19 1 4 6 14 5 3 4 4 3 3 4 18 29
9 10 11 13 13 14 15 16 17 17 17 18 16 14 12 9 1 2 3 8 9 10 7 4 3 2 3 1 3 4 15 12 11 7 7 6 8 3 3 3 6 10 9 12 20
10 11 12 13 15 14 15 16 17 17 18 17 13 12 10 1 1 2 6 13 9 7 6 5 3 4 2 3 3 6 10 7 5 11 7 8 11 5 6 8 5 8 11 15 18
11 13 13 14 15 16 17 18 17 17 17 13 11 10 3 3 3 5 10 7 2 3 1 2 3 1 3 3 2 7 12 7 9 9 9 10 10 8 6 9 7 8 15 16 17
12 13 13 14 15 17 19 19 20 18 15 9 8 7 2 2 4 10 11 5 6 3 3 3 2 2 6 7 7 5 9 7 9 7 4 6 12 7 3 7 5 10 15 16 15
12 12 14 14 16 18 20 20 20 18 8 5 4 3 2 5 6 11 8 8 10 7 2 3 2 2 2 6 3 7 14 10 11 11 10 3 11 2 7 6 7 9 9 10 10
12 12 14 16 18 19 20 20 19 9 3 2 3 3 4 4 9 10 8 9 7 6 7 7 7 9 4 3 4 9 7 7 8 13 7 15 11 1 12 11 5 4 4 7 7
12 13 15 16 18 19 20 22 8 3 4 2 2 2 6 9 6 10 11 6 11 6 8 7 5 3 1 4 4 5 6 13 7 13 6 14 12 3 14 16 7 5 4 5 6
11 13 13 15 18 19 20 8 3 3 2 1 1 2 3 5 9 12 8 8 4 5 2 3 1 3 3 3 5 5 7 7 11 9 9 14 14 4 15 18 10 5 2 5 2
11 11 12 15 16 16 18 3 6 3 4 1 2 3 4 13 5 5 5 7 1 1 3 2 2 9 16 9 13 9 9 8 10 6 11 15 11 6 15 15 16 13 7 4 5
9 9 11 12 13 11 7 6 3 2 6 1 4 4 7 4 3 5 11 4 4 3 6 4 2 5 12 10 5 6 6 9 9 8 3 10 11 9 12 5 10 10 11 8 5
8 7 9 10 8 5 11 5 2 2 2 5 3 2 5 2 3 5 6 1 4 5 4 1 5 8 7 8 11 3 6 6 4 11 7 3 3 6 5 7 11 16 12 10 10
7 7 7 8 1 3 3 4 1 2 4 3 1 1 2 1 3 4 2 1 3 3 5 3 5 4 5 7 11 6 14 8 6 2 3 3 2 4 6 10 12 15 16 13 13
7 5 5 5 1 2 1 3 1 0 4 3 5 3 5 2 4 2 3 2 2 3 3 4 6 6 6 6 11 4 13 3 5 5 3 7 3 3 3 7 9 14 13 11 6
7 5 4 2 0 2 3 3 2 5 5 0 2 4 2 4 5 5 4 4 1 2 1 3 4 2 3 0 3 5 5 1 2 2 4 6 2 3 3 5 2 10 17 13 9
7 5 3 2 1 1 1 2 5 4 4 4 2 3 1 4 3 6 4 6 4 5 7 6 5 5 2 3 4 6 4 3 5 5 3 8 4 4 5 5 3 3 4 11 9
7 5 4 4 3 0 1 5 3 2 4 2 1 1 2 5 3 6 3 2 5 4 2 4 6 6 7 2 3 4 3 2 1 3 2 7 6 3 2 1 3 3 3 7 11
8 5 3 4 4 3 4 3 6 5 2 3 2 3 4 3 2 5 4 2 2 5 3 4 3 5 2 3 2 5 4 2 4 1 3 3 2 1 3 1 4 3 3 5 7
9 5 2 6 6 4 4 4 3 2 2 1 4 3 3 2 1 2 1 3 4 1 1 2 4 3 4 3 3 4 1 3 3 3 2 3 3 3 6 5 6 7 7 7 5
8 2 4 8 7 4 3 6 4 3 2 2 4 3 2 1 3 1 2 2 3 3 3 2 1 6 2 5 2 5 3 4 4 2 2 3 2 3 4 5 6 6 7 7 7
7 1 7 10 3 2 2 4 3 3 1 1 2 1 4 4 3 1 3 2 2 2 0 2 2 3 2 3 2 1 2 1 3 2 2 2 2 2 4 5 6 6 6 6 6
4 3 3 2 3 2 2 2 2 3 4 4 4 3 1 3 1 1 1 2 3 3 1 2 2 3 7 5 4 5 3 2 2 2 1 4 3 1 5 5 5 5 5 6 6
3 4 1 2 2 6 5 4 3 1 1 2 3 2 2 2 2 3 2 0 0 1 1 1 1 4 4 3 1 4 3 3 1 3 2 2 4 3 3 6 4 5 5 5 5
2 5 3 6 7 4 5 6 5 4 1 2 1 4 5 4 3 4 3 1 1 0 3 2 2 2 1 1 1 2 3 3 1 2 4 2 5 6 2 3 3 4 4 6 7
5 4 2 3 4 12 9 7 9 4 7 4 4 7 5 4 5 6 5 3 3 1 2 2 2 1 3 3 4 3 4 4 2 1 1 2 1 2 3 5 5 4 5 6 6
11 5 4 7 5 6 6 7 10 9 5 3 7 4 6 5 4 3 4 5 3 4 2 2 4 3 4 4 3 5 6 5 2 1 4 4 3 2 3 5 4 4 4 4 3
Wind_Direction
359 358 353 350 347 345 344 342 340 338 336 337 338 338 339 337 341 14 28 347 337 343 350 356 12 1 7 329 265 263 251 243 237 213 230 62 201 211 160 134 171 209 160 312 157
351 350 346 344 340 339 338 338 336 335 334 333 334 335 337 337 343 327 351 359 353 353 3 15 3 357 13 321 268 208 237 246 6 259 275 263 255 257 175 137 218 218 64 134 149
340 341 341 337 336 335 334 333 333 332 331 331 333 338 337 335 5 214 350 346 338 348 1 7 357 48 16 306 241 241 247 285 305 313 333 277 276 258 197 228 203 206 163 157 162
327 330 334 334 332 332 330 330 328 327 326 328 335 342 337 7 62 228 319 321 320 333 350 5 5 348 233 235 258 276 262 265 281 295 327 320 319 245 212 232 257 210 155 159 172
321 322 328 330 331 329 327 325 325 325 326 329 336 344 14 15 268 334 325 347 356 329 2 33 352 283 243 243 327 238 272 279 277 278 304 323 294 267 270 280 286 143 154 186 184
321 319 322 328 329 328 325 324 324 323 320 323 336 335 35 42 335 331 329 321 323 275 201 172 223 310 285 263 248 307 298 286 273 267 252 324 299 305 342 337 229 170 179 180 184
319 321 322 327 329 328 327 323 323 318 314 322 337 353 23 228 329 335 331 307 309 272 217 240 241 230 360 284 319 278 269 275 251 234 236 339 284 171 326 321 261 208 182 177 173
312 320 322 326 329 329 327 324 323 321 321 336 318 341 255 293 324 329 328 323 310 261 242 286 251 244 205 272 286 296 256 263 226 213 214 148 266 239 11 360 284 261 238 166 173
304 316 321 325 328 331 330 327 318 330 307 243 320 13 292 323 339 336 326 304 309 285 263 281 262 290 229 220 269 216 273 245 288 196 164 170 243 313 23 3 309 268 245 197 150
297 310 320 326 330 334 333 332 301 347 51 138 322 338 330 303 316 315 327 313 292 315 50 164 30 337 280 208 228 238 253 244 228 196 194 171 215 320 39 15 357 297 3 263 233
294 306 319 329 333 340 343 7 18 327 42 124 290 240 264 315 316 324 328 316 270 53 28 282 7 343 324 267 254 279 283 275 296 241 172 193 190 43 46 9 13 25 315 35 36
281 299 318 329 335 353 10 69 93 280 313 258 245 265 270 313 319 306 348 48 32 330 357 7 317 328 337 332 6 343 287 279 235 167 129 139 149 73 66 351 350 39 16 356 8
269 294 317 330 340 12 57 64 30 343 285 308 241 273 279 355 313 285 9 325 51 355 10 334 277 316 334 343 350 319 353 318 88 103 50 90 41 49 33 61 341 17 24 14 26
263 293 317 334 12 11 66 29 5 4 53 297 314 304 323 336 292 276 324 78 29 332 337 256 301 309 16 4 344 349 353 348 14 62 119 317 116 47 10 54 349 0 4 15 3
260 287 314 339 31 120 25 350 122 178 7 294 308 310 308 54 296 322 318 32 61 298 60 284 328 340 50 359 351 330 326 2 46 62 97 358 84 0 58 76 28 348 336 19 273
233 260 292 298 238 144 358 105 94 42 258 36 296 340 12 18 340 305 354 24 206 346 354 262 283 343 308 223 313 297 351 300 80 102 51 354 5 13 43 69 74 0 348 341 354
225 245 253 232 334 280 75 61 40 140 347 304 334 30 317 351 3 9 13 16 30 34 11 339 328 325 12 324 309 9 2 344 13 28 42 342 36 14 358 358 13 7 337 337 358
209 226 234 214 207 182 80 52 108 230 233 356 15 0 41 357 7 350 12 32 23 41 31 18 342 358 337 23 319 358 39 79 52 14 355 9 10 43 72 198 38 15 356 359 16
193 200 236 222 198 158 73 72 208 201 199 180 68 72 327 354 22 45 19 352 357 12 43 3 285 322 340 315 14 328 51 188 113 18 52 349 283 202 167 32 50 51 43 42 25
168 171 198 183 167 118 81 243 210 222 182 109 175 152 194 266 66 77 300 279 303 217 109 72 303 293 298 4 17 82 216 43 9 70 65 360 30 29 30 39 42 32 26 30 41
152 96 157 164 141 57 169 220 226 213 189 152 200 167 213 224 138 184 214 237 218 293 226 68 93 298 24 37 351 345 18 49 114 100 140 127 325 304 54 40 42 30 31 26 25
138 97 165 162 83 79 179 191 281 178 150 164 146 200 181 169 158 223 240 164 341 333 358 30 94 261 252 306 268 233 1 22 99 274 66 96 279 37 52 69 73 37 26 27 34
127 125 141 192 163 220 275 307 249 176 197 181 187 215 181 181 84 199 183 3 358 334 59 13 349 6 350 2 1 37 358 350 62 74 8 119 220 121 56 74 58 74 44 36 27
112 138 163 197 187 149 142 231 224 249 224 197 152 121 123 200 146 179 156 305 269 276 281 338 85 157 180 181 334 319 352 354 53 87 175 194 163 202 99 124 94 83 62 42 35
132 205 192 175 209 178 164 141 149 182 239 246 212 203 171 174 149 190 150 134 49 16 21 52 160 25 184 32 46 283 297 333 77 169 139 182 167 194 179 141 78 83 59 49 28
146 150 113 173 150 168 186 201 182 166 153 211 198 188 194 182 182 193 151 183 194 89 82 18 151 49 314 358 27 297 274 279 277 225 106 95 292 145 117 118 93 98 64 43 25
190 141 124 165 148 143 199 195 195 140 223 171 185 138 188 204 146 116 102 85 111 146 123 61 119 68 270 333 355 343 227 199 201 211 142 165 225 126 55 99 143 139 112 89 31